When you browse on this site, cookies collect data to enhance your experience and personalize the content and advertising you see.
Visit our Privacy Policy to learn more. By continuing to use the site, you agree to this use of cookies and data.
  • In Österreich
  • Länderverzeichnis
  • Für 7 Tage
  • Wassertemperatur
  • Satellitenkarten
  • Wetterkarte
  • News
  • Widgets
  • user-avatar
    Anmelden

    Stündliche Wetter Dakka

    Heute, 21 April, Sonntag

    Zeit Temperatur Niederschläge Wind Luftdruck Luftfeuchtigkeit
    00:00 +31°C° 0 mm 2 m/S 753 mmHg 36%
    01:00 +31°C° 0 mm 2 m/S 752 mmHg 38%
    02:00 +30°C° 0 mm 2 m/S 752 mmHg 39%
    03:00 +30°C° 0 mm 2 m/S 752 mmHg 41%
    04:00 +30°C° 0 mm 2 m/S 752 mmHg 44%
    05:00 +29°C° 0 mm 2 m/S 753 mmHg 46%
    06:00 +29°C° 0 mm 2 m/S 753 mmHg 48%
    07:00 +31°C° 0 mm 2 m/S 753 mmHg 43%
    08:00 +34°C° 0 mm 2 m/S 754 mmHg 38%
    09:00 +37°C° 0 mm 3 m/S 754 mmHg 33%
    10:00 +38°C° 0 mm 3 m/S 754 mmHg 29%
    11:00 +39°C° 0 mm 3 m/S 753 mmHg 25%
    12:00 +42°C° 0 mm 3 m/S 753 mmHg 21%
    13:00 +40°C° 0 mm 2 m/S 752 mmHg 21%
    14:00 +40°C° 0 mm 2 m/S 752 mmHg 21%
    15:00 +40°C° 0 mm 2 m/S 751 mmHg 21%
    16:00 +39°C° 0 mm 2 m/S 751 mmHg 23%
    17:00 +39°C° 0 mm 1 m/S 751 mmHg 25%
    18:00 +37°C° 0 mm 1 m/S 750 mmHg 27%
    19:00 +36°C° 0 mm 1 m/S 751 mmHg 29%
    20:00 +36°C° 0 mm 2 m/S 751 mmHg 32%
    21:00 +35°C° 0 mm 3 m/S 751 mmHg 35%
    22:00 +34°C° 0 mm 3 m/S 752 mmHg 38%
    23:00 +34°C° 0 mm 4 m/S 752 mmHg 42%

    Morgen, 22 April, Montag

    Zeit Temperatur Niederschläge Wind Luftdruck Luftfeuchtigkeit
    00:00 +34°C° 0 mm 4 m/S 752 mmHg 46%
    01:00 +33°C° 0 mm 4 m/S 752 mmHg 47%
    02:00 +33°C° 0 mm 3 m/S 752 mmHg 49%
    03:00 +31°C° 0 mm 2 m/S 751 mmHg 51%
    04:00 +31°C° 0 mm 1 m/S 752 mmHg 52%
    05:00 +30°C° 0 mm 1 m/S 752 mmHg 54%
    06:00 +30°C° 0 mm 1 m/S 752 mmHg 56%
    07:00 +32°C° 0 mm 1 m/S 753 mmHg 51%
    08:00 +34°C° 0 mm 2 m/S 754 mmHg 45%
    09:00 +36°C° 0 mm 2 m/S 754 mmHg 40%
    10:00 +37°C° 0 mm 2 m/S 754 mmHg 36%
    11:00 +39°C° 0 mm 1 m/S 754 mmHg 32%
    12:00 +40°C° 0 mm 1 m/S 753 mmHg 28%
    13:00 +41°C° 0 mm 1 m/S 753 mmHg 26%
    14:00 +41°C° 0 mm 1 m/S 752 mmHg 24%
    15:00 +42°C° 0 mm 1 m/S 751 mmHg 22%
    16:00 +41°C° 0 mm 1 m/S 751 mmHg 23%
    17:00 +40°C° 0 mm 1 m/S 751 mmHg 25%
    18:00 +39°C° 0 mm 1 m/S 751 mmHg 27%
    19:00 +39°C° 0 mm 2 m/S 751 mmHg 28%
    20:00 +38°C° 0 mm 2 m/S 752 mmHg 29%
    21:00 +38°C° 0 mm 3 m/S 753 mmHg 30%
    22:00 +37°C° 0 mm 3 m/S 753 mmHg 34%
    23:00 +35°C° 0 mm 3 m/S 753 mmHg 39%

    übermorgen, 23 April, Dienstag

    Zeit Temperatur Niederschläge Wind Luftdruck Luftfeuchtigkeit
    00:00 +34°C° 0 mm 4 m/S 753 mmHg 43%
    01:00 +33°C° 0.5 mm 4 m/S 753 mmHg 47%
    02:00 +32°C° 0.5 mm 4 m/S 753 mmHg 51%
    03:00 +29°C° 0.5 mm 4 m/S 752 mmHg 55%
    04:00 +29°C° 0 mm 3 m/S 753 mmHg 55%
    05:00 +29°C° 0 mm 3 m/S 753 mmHg 55%
    06:00 +29°C° 0 mm 2 m/S 754 mmHg 54%
    07:00 +31°C° 0 mm 2 m/S 754 mmHg 49%
    08:00 +34°C° 0 mm 2 m/S 755 mmHg 44%
    09:00 +36°C° 0 mm 2 m/S 755 mmHg 38%
    10:00 +38°C° 0 mm 2 m/S 755 mmHg 34%
    11:00 +39°C° 0 mm 2 m/S 755 mmHg 31%
    12:00 +41°C° 0 mm 2 m/S 754 mmHg 27%
    13:00 +41°C° 0 mm 2 m/S 753 mmHg 24%
    14:00 +42°C° 0 mm 2 m/S 753 mmHg 22%
    15:00 +42°C° 0 mm 1 m/S 752 mmHg 20%
    16:00 +41°C° 0 mm 2 m/S 752 mmHg 22%
    17:00 +41°C° 0 mm 2 m/S 751 mmHg 23%
    18:00 +40°C° 0 mm 2 m/S 751 mmHg 25%
    19:00 +38°C° 0.1 mm 3 m/S 752 mmHg 29%
    20:00 +37°C° 0.1 mm 3 m/S 753 mmHg 32%
    21:00 +35°C° 0.1 mm 3 m/S 754 mmHg 36%
    22:00 +35°C° 0.3 mm 3 m/S 754 mmHg 37%
    23:00 +34°C° 0.3 mm 3 m/S 754 mmHg 38%

    24 April, Mittwoch

    Zeit Temperatur Niederschläge Wind Luftdruck Luftfeuchtigkeit
    00:00 +34°C° 0.3 mm 3 m/S 754 mmHg 39%
    01:00 +32°C° 0 mm 2 m/S 754 mmHg 42%
    02:00 +31°C° 0 mm 2 m/S 754 mmHg 45%
    03:00 +31°C° 0 mm 1 m/S 754 mmHg 48%
    04:00 +31°C° 0 mm 1 m/S 754 mmHg 48%
    05:00 +30°C° 0 mm 1 m/S 754 mmHg 49%
    06:00 +30°C° 0 mm 1 m/S 755 mmHg 49%
    07:00 +32°C° 0 mm 2 m/S 755 mmHg 44%
    08:00 +35°C° 0 mm 2 m/S 756 mmHg 39%
    09:00 +37°C° 0 mm 2 m/S 757 mmHg 34%
    10:00 +38°C° 0 mm 2 m/S 756 mmHg 31%
    11:00 +40°C° 0 mm 2 m/S 756 mmHg 28%
    12:00 +41°C° 0 mm 2 m/S 755 mmHg 26%
    13:00 +41°C° 0 mm 2 m/S 754 mmHg 24%
    14:00 +42°C° 0 mm 1 m/S 753 mmHg 23%
    15:00 +42°C° 0 mm 1 m/S 752 mmHg 21%
    16:00 +42°C° 0 mm 1 m/S 752 mmHg 23%
    17:00 +41°C° 0 mm 1 m/S 752 mmHg 25%
    18:00 +37°C° 0 mm 0 m/S 752 mmHg 26%
    19:00 +39°C° 0 mm 1 m/S 752 mmHg 27%
    20:00 +38°C° 0 mm 2 m/S 753 mmHg 29%
    21:00 +37°C° 0 mm 2 m/S 754 mmHg 30%
    22:00 +36°C° 0 mm 2 m/S 754 mmHg 34%
    23:00 +36°C° 0 mm 2 m/S 754 mmHg 39%

    25 April, Donnerstag

    Zeit Temperatur Niederschläge Wind Luftdruck Luftfeuchtigkeit
    00:00 +35°C° 0 mm 2 m/S 754 mmHg 43%
    01:00 +34°C° 0 mm 2 m/S 753 mmHg 44%
    02:00 +34°C° 0 mm 2 m/S 753 mmHg 46%
    03:00 +32°C° 0 mm 2 m/S 753 mmHg 47%
    04:00 +32°C° 0 mm 1 m/S 753 mmHg 49%
    05:00 +31°C° 0 mm 1 m/S 754 mmHg 51%
    06:00 +31°C° 0 mm 1 m/S 754 mmHg 53%
    07:00 +33°C° 0 mm 1 m/S 755 mmHg 48%
    08:00 +34°C° 0 mm 1 m/S 756 mmHg 43%
    09:00 +36°C° 0 mm 1 m/S 756 mmHg 38%
    10:00 +37°C° 0 mm 1 m/S 756 mmHg 35%
    11:00 +40°C° 0 mm 1 m/S 755 mmHg 31%
    12:00 +41°C° 0 mm 2 m/S 755 mmHg 28%
    13:00 +41°C° 0 mm 2 m/S 754 mmHg 26%
    14:00 +42°C° 0 mm 2 m/S 753 mmHg 25%
    15:00 +42°C° 0 mm 2 m/S 752 mmHg 24%
    16:00 +42°C° 0 mm 2 m/S 752 mmHg 25%
    17:00 +41°C° 0 mm 2 m/S 751 mmHg 27%
    18:00 +41°C° 0 mm 1 m/S 751 mmHg 28%
    19:00 +40°C° 0 mm 2 m/S 752 mmHg 29%
    20:00 +40°C° 0 mm 4 m/S 752 mmHg 31%
    21:00 +39°C° 0 mm 5 m/S 753 mmHg 33%
    22:00 +37°C° 0 mm 5 m/S 753 mmHg 35%
    23:00 +36°C° 0 mm 4 m/S 752 mmHg 37%

    26 April, Freitag

    Zeit Temperatur Niederschläge Wind Luftdruck Luftfeuchtigkeit
    00:00 +35°C° 0 mm 4 m/S 752 mmHg 39%
    01:00 +34°C° 0 mm 3 m/S 752 mmHg 42%
    02:00 +33°C° 0 mm 3 m/S 752 mmHg 45%
    03:00 +31°C° 0 mm 3 m/S 752 mmHg 49%
    04:00 +31°C° 0.3 mm 2 m/S 752 mmHg 52%
    05:00 +31°C° 0.3 mm 2 m/S 753 mmHg 55%
    06:00 +30°C° 0.3 mm 2 m/S 753 mmHg 58%
    07:00 +32°C° 0 mm 2 m/S 753 mmHg 54%
    08:00 +35°C° 0 mm 3 m/S 754 mmHg 49%
    09:00 +36°C° 0 mm 3 m/S 754 mmHg 44%
    10:00 +38°C° 0 mm 3 m/S 754 mmHg 38%
    11:00 +41°C° 0 mm 4 m/S 753 mmHg 32%
    12:00 +43°C° 0 mm 4 m/S 753 mmHg 26%
    13:00 +44°C° 0 mm 4 m/S 752 mmHg 24%
    14:00 +46°C° 0 mm 5 m/S 751 mmHg 23%
    15:00 +46°C° 0 mm 5 m/S 750 mmHg 21%
    16:00 +45°C° 0 mm 5 m/S 750 mmHg 23%
    17:00 +43°C° 0 mm 5 m/S 750 mmHg 25%
    18:00 +42°C° 0 mm 5 m/S 750 mmHg 28%
    19:00 +40°C° 0 mm 6 m/S 750 mmHg 33%
    20:00 +39°C° 0 mm 6 m/S 751 mmHg 37%
    21:00 +36°C° 0 mm 6 m/S 751 mmHg 42%
    22:00 +35°C° 0 mm 6 m/S 752 mmHg 48%
    23:00 +34°C° 0 mm 5 m/S 752 mmHg 54%
    Mehr zeigen